Year,Month,Day,Hour,Minute,Value (Times are PST for temperature in C)
2009,07,30,00,00,23.50
2009,07,30,00,01,23.40
2009,07,30,00,02,23.40
2009,07,30,00,03,23.40
2009,07,30,00,04,23.40
2009,07,30,00,05,23.40
2009,07,30,00,06,23.40
2009,07,30,00,07,23.40
2009,07,30,00,08,23.30
2009,07,30,00,09,23.30
2009,07,30,00,10,23.30
2009,07,30,00,11,23.30
2009,07,30,00,12,23.30
2009,07,30,00,13,23.30
2009,07,30,00,14,23.30
2009,07,30,00,15,23.30
2009,07,30,00,16,23.20
2009,07,30,00,17,23.20
2009,07,30,00,18,23.20
2009,07,30,00,19,23.20
2009,07,30,00,20,23.20
2009,07,30,00,21,23.20
2009,07,30,00,22,23.20
2009,07,30,00,23,23.10
2009,07,30,00,24,23.10
2009,07,30,00,25,23.10
2009,07,30,00,26,23.10
2009,07,30,00,27,23.10
2009,07,30,00,28,23.10
2009,07,30,00,29,23.00
2009,07,30,00,30,22.90
2009,07,30,00,31,22.90
2009,07,30,00,32,22.90
2009,07,30,00,33,22.90
2009,07,30,00,34,22.90
2009,07,30,00,35,22.90
2009,07,30,00,36,22.90
2009,07,30,00,37,22.90
2009,07,30,00,38,22.90
2009,07,30,00,39,22.90
2009,07,30,00,40,22.90
2009,07,30,00,41,22.80
2009,07,30,00,42,22.80
2009,07,30,00,43,22.80
2009,07,30,00,44,22.80
2009,07,30,00,45,22.80
2009,07,30,00,46,22.80
2009,07,30,00,47,22.70
2009,07,30,00,48,22.70
2009,07,30,00,49,22.70
2009,07,30,00,50,22.70
2009,07,30,00,51,22.60
2009,07,30,00,52,22.60
2009,07,30,00,53,22.60
2009,07,30,00,54,22.50
2009,07,30,00,55,22.50
2009,07,30,00,56,22.50
2009,07,30,00,57,22.40
2009,07,30,00,58,22.40
2009,07,30,00,59,22.30
2009,07,30,01,00,22.30
2009,07,30,01,01,22.30
2009,07,30,01,02,22.20
2009,07,30,01,03,22.20
2009,07,30,01,04,22.20
2009,07,30,01,05,22.20
2009,07,30,01,06,22.20
2009,07,30,01,07,22.10
2009,07,30,01,08,22.10
2009,07,30,01,09,22.10
2009,07,30,01,10,22.10
2009,07,30,01,11,22.00
2009,07,30,01,12,22.00
2009,07,30,01,13,22.00
2009,07,30,01,14,22.00
2009,07,30,01,15,21.90
2009,07,30,01,16,21.90
2009,07,30,01,17,21.90
2009,07,30,01,18,21.90
2009,07,30,01,19,21.90
2009,07,30,01,20,21.90
2009,07,30,01,21,21.90
2009,07,30,01,22,21.90
2009,07,30,01,23,21.90
2009,07,30,01,24,21.80
2009,07,30,01,25,21.80
2009,07,30,01,26,21.80
2009,07,30,01,27,21.80
2009,07,30,01,28,21.80
2009,07,30,01,29,21.80
2009,07,30,01,30,21.70
2009,07,30,01,31,21.70
2009,07,30,01,32,21.70
2009,07,30,01,33,21.70
2009,07,30,01,34,21.70
2009,07,30,01,35,21.70
2009,07,30,01,36,21.60
2009,07,30,01,37,21.60
2009,07,30,01,38,21.60
2009,07,30,01,39,21.60
2009,07,30,01,40,21.60
2009,07,30,01,41,21.60
2009,07,30,01,42,21.60
2009,07,30,01,43,21.40
2009,07,30,01,44,21.40
2009,07,30,01,45,21.40
2009,07,30,01,46,21.40
2009,07,30,01,47,21.40
2009,07,30,01,48,21.30
2009,07,30,01,49,21.30
2009,07,30,01,50,21.30
2009,07,30,01,51,21.30
2009,07,30,01,52,21.30
2009,07,30,01,53,21.30
2009,07,30,01,54,21.30
2009,07,30,01,55,21.30
2009,07,30,01,56,21.30
2009,07,30,01,57,21.30
2009,07,30,01,58,21.30
2009,07,30,01,59,21.30
2009,07,30,02,00,21.20
2009,07,30,02,01,21.20
2009,07,30,02,02,21.20
2009,07,30,02,03,21.20
2009,07,30,02,04,21.20
2009,07,30,02,05,21.10
2009,07,30,02,06,21.10
2009,07,30,02,07,21.10
2009,07,30,02,08,21.10
2009,07,30,02,09,21.00
2009,07,30,02,10,21.00
2009,07,30,02,11,21.00
2009,07,30,02,12,21.00
2009,07,30,02,13,21.00
2009,07,30,02,14,21.00
2009,07,30,02,15,21.00
2009,07,30,02,16,20.90
2009,07,30,02,17,20.90
2009,07,30,02,18,20.90
2009,07,30,02,19,20.90
2009,07,30,02,20,20.90
2009,07,30,02,21,20.90
2009,07,30,02,22,20.80
2009,07,30,02,23,20.80
2009,07,30,02,24,20.80
2009,07,30,02,25,20.80
2009,07,30,02,26,20.80
2009,07,30,02,27,20.80
2009,07,30,02,28,20.80
2009,07,30,02,29,20.70
2009,07,30,02,30,20.70
2009,07,30,02,31,20.70
2009,07,30,02,32,20.70
2009,07,30,02,33,20.70
2009,07,30,02,34,20.70
2009,07,30,02,35,20.70
2009,07,30,02,36,20.60
2009,07,30,02,37,20.60
2009,07,30,02,38,20.60
2009,07,30,02,39,20.60
2009,07,30,02,40,20.60
2009,07,30,02,41,20.60
2009,07,30,02,42,20.60
2009,07,30,02,43,20.60
2009,07,30,02,44,20.50
2009,07,30,02,45,20.50
2009,07,30,02,46,20.50
2009,07,30,02,47,20.50
2009,07,30,02,48,20.50
2009,07,30,02,49,20.50
2009,07,30,02,50,20.50
2009,07,30,02,51,20.50
2009,07,30,02,52,20.50
2009,07,30,02,53,20.50
2009,07,30,02,54,20.50
2009,07,30,02,55,20.40
2009,07,30,02,56,20.40
2009,07,30,02,57,20.40
2009,07,30,02,58,20.40
2009,07,30,02,59,20.40
2009,07,30,03,00,20.40
2009,07,30,03,01,20.40
2009,07,30,03,02,20.40
2009,07,30,03,03,20.40
2009,07,30,03,04,20.40
2009,07,30,03,05,20.40
2009,07,30,03,06,20.40
2009,07,30,03,07,20.40
2009,07,30,03,08,20.40
2009,07,30,03,09,20.40
2009,07,30,03,10,20.40
2009,07,30,03,11,20.40
2009,07,30,03,12,20.40
2009,07,30,03,13,20.40
2009,07,30,03,14,20.40
2009,07,30,03,15,20.40
2009,07,30,03,16,20.30
2009,07,30,03,17,20.30
2009,07,30,03,18,20.30
2009,07,30,03,19,20.30
2009,07,30,03,20,20.20
2009,07,30,03,21,20.20
2009,07,30,03,22,20.20
2009,07,30,03,23,20.20
2009,07,30,03,24,20.20
2009,07,30,03,25,20.20
2009,07,30,03,26,20.20
2009,07,30,03,27,20.20
2009,07,30,03,28,20.20
2009,07,30,03,29,20.20
2009,07,30,03,30,20.20
2009,07,30,03,31,20.10
2009,07,30,03,32,20.10
2009,07,30,03,33,20.10
2009,07,30,03,34,20.10
2009,07,30,03,35,20.10
2009,07,30,03,36,20.00
2009,07,30,03,37,19.90
2009,07,30,03,38,19.90
2009,07,30,03,39,19.90
2009,07,30,03,40,19.90
2009,07,30,03,41,19.90
2009,07,30,03,42,19.90
2009,07,30,03,43,19.90
2009,07,30,03,44,19.90
2009,07,30,03,45,19.90
2009,07,30,03,46,19.90
2009,07,30,03,47,19.90
2009,07,30,03,48,19.90
2009,07,30,03,49,19.90
2009,07,30,03,50,19.90
2009,07,30,03,51,19.90
2009,07,30,03,52,19.90
2009,07,30,03,53,19.90
2009,07,30,03,54,19.90
2009,07,30,03,55,19.90
2009,07,30,03,56,19.90
2009,07,30,03,57,19.90
2009,07,30,03,58,19.90
2009,07,30,03,59,19.90
2009,07,30,04,00,19.90
2009,07,30,04,01,19.90
2009,07,30,04,02,19.90
2009,07,30,04,03,19.90
2009,07,30,04,04,19.80
2009,07,30,04,05,19.80
2009,07,30,04,06,19.80
2009,07,30,04,07,19.80
2009,07,30,04,08,19.80
2009,07,30,04,09,19.80
2009,07,30,04,10,19.80
2009,07,30,04,11,19.80
2009,07,30,04,12,19.80
2009,07,30,04,13,19.80
2009,07,30,04,14,19.70
2009,07,30,04,15,19.70
2009,07,30,04,16,19.70
2009,07,30,04,17,19.70
2009,07,30,04,18,19.70
2009,07,30,04,19,19.60
2009,07,30,04,20,19.60
2009,07,30,04,21,19.60
2009,07,30,04,22,19.60
2009,07,30,04,23,19.60
2009,07,30,04,24,19.60
2009,07,30,04,25,19.60
2009,07,30,04,26,19.60
2009,07,30,04,27,19.50
2009,07,30,04,28,19.50
2009,07,30,04,29,19.50
2009,07,30,04,30,19.50
2009,07,30,04,31,19.50
2009,07,30,04,32,19.50
2009,07,30,04,33,19.50
2009,07,30,04,34,19.50
2009,07,30,04,35,19.50
2009,07,30,04,36,19.50
2009,07,30,04,37,19.50
2009,07,30,04,38,19.50
2009,07,30,04,39,19.40
2009,07,30,04,40,19.40
2009,07,30,04,41,19.40
2009,07,30,04,42,19.40
2009,07,30,04,43,19.40
2009,07,30,04,44,19.40
2009,07,30,04,45,19.40
2009,07,30,04,46,19.30
2009,07,30,04,47,19.30
2009,07,30,04,48,19.30
2009,07,30,04,49,19.30
2009,07,30,04,50,19.30
2009,07,30,04,51,19.30
2009,07,30,04,52,19.20
2009,07,30,04,53,19.20
2009,07,30,04,54,19.20
2009,07,30,04,55,19.20
2009,07,30,04,56,19.20
2009,07,30,04,57,19.20
2009,07,30,04,58,19.10
2009,07,30,04,59,19.10
2009,07,30,05,00,19.10
2009,07,30,05,01,19.10
2009,07,30,05,02,19.10
2009,07,30,05,03,19.10
2009,07,30,05,04,19.10
2009,07,30,05,05,19.10
2009,07,30,05,06,19.10
2009,07,30,05,07,19.10
2009,07,30,05,08,19.10
2009,07,30,05,09,19.10
2009,07,30,05,10,18.90
2009,07,30,05,11,18.90
2009,07,30,05,12,18.90
2009,07,30,05,13,18.90
2009,07,30,05,14,18.90
2009,07,30,05,15,18.90
2009,07,30,05,16,18.90
2009,07,30,05,17,18.90
2009,07,30,05,18,18.90
2009,07,30,05,19,18.90
2009,07,30,05,20,18.80
2009,07,30,05,21,18.80
2009,07,30,05,22,18.80
2009,07,30,05,23,18.80
2009,07,30,05,24,18.80
2009,07,30,05,25,18.80
2009,07,30,05,26,18.80
2009,07,30,05,27,18.80
2009,07,30,05,28,18.80
2009,07,30,05,29,18.70
2009,07,30,05,30,18.70
2009,07,30,05,31,18.70
2009,07,30,05,32,18.70
2009,07,30,05,33,18.70
2009,07,30,05,34,18.70
2009,07,30,05,35,18.70
2009,07,30,05,36,18.70
2009,07,30,05,37,18.70
2009,07,30,05,38,18.60
2009,07,30,05,39,18.60
2009,07,30,05,40,18.60
2009,07,30,05,41,18.60
2009,07,30,05,42,18.60
2009,07,30,05,43,18.60
2009,07,30,05,44,18.60
2009,07,30,05,45,18.60
2009,07,30,05,46,18.60
2009,07,30,05,47,18.50
2009,07,30,05,48,18.50
2009,07,30,05,49,18.50
2009,07,30,05,50,18.50
2009,07,30,05,51,18.50
2009,07,30,05,52,18.50
2009,07,30,05,53,18.50
2009,07,30,05,54,18.50
2009,07,30,05,55,18.50
2009,07,30,05,56,18.50
2009,07,30,05,57,18.50
2009,07,30,05,58,18.50
2009,07,30,05,59,18.50
2009,07,30,06,00,18.50
2009,07,30,06,01,18.40
2009,07,30,06,02,18.40
2009,07,30,06,03,18.40
2009,07,30,06,04,18.40
2009,07,30,06,05,18.40
2009,07,30,06,06,18.40
2009,07,30,06,07,18.40
2009,07,30,06,08,18.40
2009,07,30,06,09,18.40
2009,07,30,06,10,18.40
2009,07,30,06,11,18.40
2009,07,30,06,12,18.40
2009,07,30,06,13,18.40
2009,07,30,06,14,18.40
2009,07,30,06,15,18.40
2009,07,30,06,16,18.40
2009,07,30,06,17,18.40
2009,07,30,06,18,18.40
2009,07,30,06,19,18.40
2009,07,30,06,20,18.40
2009,07,30,06,21,18.40
2009,07,30,06,22,18.40
2009,07,30,06,23,18.40
2009,07,30,06,24,18.40
2009,07,30,06,25,18.40
2009,07,30,06,26,18.50
2009,07,30,06,27,18.50
2009,07,30,06,28,18.50
2009,07,30,06,29,18.50
2009,07,30,06,30,18.50
2009,07,30,06,31,18.50
2009,07,30,06,32,18.50
2009,07,30,06,33,18.50
2009,07,30,06,34,18.50
2009,07,30,06,35,18.60
2009,07,30,06,36,18.60
2009,07,30,06,37,18.60
2009,07,30,06,38,18.60
2009,07,30,06,39,18.60
2009,07,30,06,40,18.60
2009,07,30,06,41,18.60
2009,07,30,06,42,18.60
2009,07,30,06,43,18.60
2009,07,30,06,44,18.60
2009,07,30,06,45,18.60
2009,07,30,06,46,18.60
2009,07,30,06,47,18.60
2009,07,30,06,48,18.60
2009,07,30,06,49,18.60
2009,07,30,06,50,18.60
2009,07,30,06,51,18.70
2009,07,30,06,52,18.70
2009,07,30,06,53,18.70
2009,07,30,06,54,18.70
2009,07,30,06,55,18.80
2009,07,30,06,56,18.80
2009,07,30,06,57,18.90
2009,07,30,06,58,18.90
2009,07,30,06,59,18.90
2009,07,30,07,00,19.00
2009,07,30,07,01,19.10
2009,07,30,07,02,19.10
2009,07,30,07,03,19.20
2009,07,30,07,04,19.30
2009,07,30,07,05,19.30
2009,07,30,07,06,19.40
2009,07,30,07,07,19.40
2009,07,30,07,08,19.50
2009,07,30,07,09,19.60
2009,07,30,07,10,19.60
2009,07,30,07,11,19.70
2009,07,30,07,12,19.70
2009,07,30,07,13,19.80
2009,07,30,07,14,19.80
2009,07,30,07,15,19.90
2009,07,30,07,16,19.90
2009,07,30,07,17,19.90
2009,07,30,07,18,19.80
2009,07,30,07,19,19.80
2009,07,30,07,20,19.80
2009,07,30,07,21,19.90
2009,07,30,07,22,19.90
2009,07,30,07,23,19.90
2009,07,30,07,24,19.90
2009,07,30,07,25,19.90
2009,07,30,07,26,20.10
2009,07,30,07,27,20.10
2009,07,30,07,28,20.20
2009,07,30,07,29,20.20
2009,07,30,07,30,20.30
2009,07,30,07,31,20.40
2009,07,30,07,32,20.50
2009,07,30,07,33,20.60
2009,07,30,07,34,20.60
2009,07,30,07,35,20.70
2009,07,30,07,36,20.70
2009,07,30,07,37,20.80
2009,07,30,07,38,20.80
2009,07,30,07,39,20.90
2009,07,30,07,40,21.00
2009,07,30,07,41,21.00
2009,07,30,07,42,21.10
2009,07,30,07,43,21.20
2009,07,30,07,44,21.30
2009,07,30,07,45,21.30
2009,07,30,07,46,21.30
2009,07,30,07,47,21.30
2009,07,30,07,48,21.40
2009,07,30,07,49,21.40
2009,07,30,07,50,21.50
2009,07,30,07,51,21.60
2009,07,30,07,52,21.60
2009,07,30,07,53,21.60
2009,07,30,07,54,21.70
2009,07,30,07,55,21.70
2009,07,30,07,56,21.80
2009,07,30,07,57,21.90
2009,07,30,07,58,22.00
2009,07,30,07,59,22.10
2009,07,30,08,00,22.20
2009,07,30,08,01,22.30
2009,07,30,08,02,22.40
2009,07,30,08,03,22.50
2009,07,30,08,04,22.60
2009,07,30,08,05,22.60
2009,07,30,08,06,22.80
2009,07,30,08,07,22.90
2009,07,30,08,08,23.00
2009,07,30,08,09,23.10
2009,07,30,08,10,23.30
2009,07,30,08,11,23.40
2009,07,30,08,12,23.50
2009,07,30,08,13,23.70
2009,07,30,08,14,23.70
2009,07,30,08,15,23.90
2009,07,30,08,16,24.00
2009,07,30,08,17,24.10
2009,07,30,08,18,24.20
2009,07,30,08,19,24.30
2009,07,30,08,20,24.30
2009,07,30,08,21,24.40
2009,07,30,08,22,24.50
2009,07,30,08,23,24.50
2009,07,30,08,24,24.60
2009,07,30,08,25,24.80
2009,07,30,08,26,24.80
2009,07,30,08,27,24.90
2009,07,30,08,28,24.90
2009,07,30,08,29,25.00
2009,07,30,08,30,25.00
2009,07,30,08,31,25.10
2009,07,30,08,32,25.10
2009,07,30,08,33,25.20
2009,07,30,08,34,25.30
2009,07,30,08,35,25.30
2009,07,30,08,36,25.40
2009,07,30,08,37,25.40
2009,07,30,08,38,25.50
2009,07,30,08,39,25.50
2009,07,30,08,40,25.50
2009,07,30,08,41,25.60
2009,07,30,08,42,25.60
2009,07,30,08,43,25.60
2009,07,30,08,44,25.70
2009,07,30,08,45,25.90
2009,07,30,08,46,25.90
2009,07,30,08,47,26.10
2009,07,30,08,48,26.20
2009,07,30,08,49,26.30
2009,07,30,08,50,26.50
2009,07,30,08,51,26.60
2009,07,30,08,52,26.70
2009,07,30,08,53,26.80
2009,07,30,08,54,26.90
2009,07,30,08,55,27.10
2009,07,30,08,56,27.20
2009,07,30,08,57,27.30
2009,07,30,08,58,27.30
2009,07,30,08,59,27.40
2009,07,30,09,00,27.50
2009,07,30,09,01,27.60
2009,07,30,09,02,27.70
2009,07,30,09,03,27.80
2009,07,30,09,04,27.80
2009,07,30,09,05,27.90
2009,07,30,09,06,28.00
2009,07,30,09,07,28.10
2009,07,30,09,08,28.20
2009,07,30,09,09,28.20
2009,07,30,09,10,28.20
2009,07,30,09,11,28.30
2009,07,30,09,12,28.30
2009,07,30,09,13,28.30
2009,07,30,09,14,28.40
2009,07,30,09,15,28.40
2009,07,30,09,16,28.30
2009,07,30,09,17,28.30
2009,07,30,09,18,28.30
2009,07,30,09,19,28.30
2009,07,30,09,20,28.30
2009,07,30,09,21,28.20
2009,07,30,09,22,28.20
2009,07,30,09,23,28.20
2009,07,30,09,24,28.30
2009,07,30,09,25,28.30
2009,07,30,09,26,28.30
2009,07,30,09,27,28.40
2009,07,30,09,28,28.40
2009,07,30,09,29,28.30
2009,07,30,09,30,28.30
2009,07,30,09,31,28.30
2009,07,30,09,32,28.40
2009,07,30,09,33,28.40
2009,07,30,09,34,28.40
2009,07,30,09,35,28.50
2009,07,30,09,36,28.60
2009,07,30,09,37,28.60
2009,07,30,09,38,28.60
2009,07,30,09,39,28.70
2009,07,30,09,40,28.80
2009,07,30,09,41,28.90
2009,07,30,09,42,28.90
2009,07,30,09,43,28.90
2009,07,30,09,44,28.90
2009,07,30,09,45,28.90
2009,07,30,09,46,28.90
2009,07,30,09,47,28.90
2009,07,30,09,48,28.90
2009,07,30,09,49,28.90
2009,07,30,09,50,28.90
2009,07,30,09,51,28.90
2009,07,30,09,52,28.90
2009,07,30,09,53,29.00
2009,07,30,09,54,28.90
2009,07,30,09,55,28.90
2009,07,30,09,56,28.90
2009,07,30,09,57,28.90
2009,07,30,09,58,28.90
2009,07,30,09,59,28.90
2009,07,30,10,00,28.90
2009,07,30,10,01,28.80
2009,07,30,10,02,28.70
2009,07,30,10,03,28.60
2009,07,30,10,04,28.50
2009,07,30,10,05,28.40
2009,07,30,10,06,28.30
2009,07,30,10,07,28.20
2009,07,30,10,08,28.20
2009,07,30,10,09,28.10
2009,07,30,10,10,28.00
2009,07,30,10,11,27.90
2009,07,30,10,12,27.90
2009,07,30,10,13,27.80
2009,07,30,10,14,27.70
2009,07,30,10,15,27.60
2009,07,30,10,16,27.60
2009,07,30,10,17,27.50
2009,07,30,10,18,27.40
2009,07,30,10,19,27.30
2009,07,30,10,20,27.30
2009,07,30,10,21,27.30
2009,07,30,10,22,27.30
2009,07,30,10,23,27.20
2009,07,30,10,24,27.10
2009,07,30,10,25,27.10
2009,07,30,10,26,27.10
2009,07,30,10,27,27.10
2009,07,30,10,28,27.10
2009,07,30,10,29,27.20
2009,07,30,10,30,27.20
2009,07,30,10,31,27.30
2009,07,30,10,32,27.30
2009,07,30,10,33,27.30
2009,07,30,10,34,27.30
2009,07,30,10,35,27.30
2009,07,30,10,36,27.40
2009,07,30,10,37,27.60
2009,07,30,10,38,27.60
2009,07,30,10,39,27.60
2009,07,30,10,40,27.70
2009,07,30,10,41,27.70
2009,07,30,10,42,27.80
2009,07,30,10,43,27.80
2009,07,30,10,44,27.80
2009,07,30,10,45,27.80
2009,07,30,10,46,27.80
2009,07,30,10,47,27.80
2009,07,30,10,48,27.80
2009,07,30,10,49,27.70
2009,07,30,10,50,27.60
2009,07,30,10,51,27.60
2009,07,30,10,52,27.60
2009,07,30,10,53,27.60
2009,07,30,10,54,27.70
2009,07,30,10,55,27.70
2009,07,30,10,56,27.70
2009,07,30,10,57,27.80
2009,07,30,10,58,27.90
2009,07,30,10,59,27.90
2009,07,30,11,00,28.00
2009,07,30,11,01,28.10
2009,07,30,11,02,28.10
2009,07,30,11,03,28.20
2009,07,30,11,04,28.20
2009,07,30,11,05,28.30
2009,07,30,11,06,28.40
2009,07,30,11,07,28.50
2009,07,30,11,08,28.60
2009,07,30,11,09,28.70
2009,07,30,11,10,28.70
2009,07,30,11,11,28.70
2009,07,30,11,12,28.70
2009,07,30,11,13,28.70
2009,07,30,11,14,28.70
2009,07,30,11,15,28.70
2009,07,30,11,16,28.70
2009,07,30,11,17,28.60
2009,07,30,11,18,28.60
2009,07,30,11,19,28.60
2009,07,30,11,20,28.60
2009,07,30,11,21,28.60
2009,07,30,11,22,28.60
2009,07,30,11,23,28.60
2009,07,30,11,24,28.70
2009,07,30,11,25,28.70
2009,07,30,11,26,28.70
2009,07,30,11,27,28.80
2009,07,30,11,28,28.80
2009,07,30,11,29,28.90
2009,07,30,11,30,28.90
2009,07,30,11,31,28.90
2009,07,30,11,32,28.90
2009,07,30,11,33,28.90
2009,07,30,11,34,28.90
2009,07,30,11,35,28.90
2009,07,30,11,36,29.00
2009,07,30,11,37,29.10
2009,07,30,11,38,29.20
2009,07,30,11,39,29.20
2009,07,30,11,40,29.30
2009,07,30,11,41,29.40
2009,07,30,11,42,29.40
2009,07,30,11,43,29.50
2009,07,30,11,44,29.50
2009,07,30,11,45,29.50
2009,07,30,11,46,29.60
2009,07,30,11,47,29.60
2009,07,30,11,48,29.60
2009,07,30,11,49,29.70
2009,07,30,11,50,29.70
2009,07,30,11,51,29.70
2009,07,30,11,52,29.70
2009,07,30,11,53,29.70
2009,07,30,11,54,29.70
2009,07,30,11,55,29.60
2009,07,30,11,56,29.60
2009,07,30,11,57,29.60
2009,07,30,11,58,29.60
2009,07,30,11,59,29.60
2009,07,30,12,00,29.70
2009,07,30,12,01,29.60
2009,07,30,12,02,29.30
2009,07,30,12,03,29.30
2009,07,30,12,04,29.20
2009,07,30,12,05,29.20
2009,07,30,12,06,29.10
2009,07,30,12,07,29.10
2009,07,30,12,08,29.10
2009,07,30,12,09,29.10
2009,07,30,12,10,29.10
2009,07,30,12,11,29.10
2009,07,30,12,12,29.10
2009,07,30,12,13,29.00
2009,07,30,12,14,29.00
2009,07,30,12,15,29.10
2009,07,30,12,16,29.20
2009,07,30,12,17,29.30
2009,07,30,12,18,29.40
2009,07,30,12,19,29.40
2009,07,30,12,20,29.60
2009,07,30,12,21,29.80
2009,07,30,12,22,29.80
2009,07,30,12,23,29.80
2009,07,30,12,24,29.90
2009,07,30,12,25,30.10
2009,07,30,12,26,30.20
2009,07,30,12,27,30.30
2009,07,30,12,28,30.30
2009,07,30,12,29,30.40
2009,07,30,12,30,30.40
2009,07,30,12,31,30.40
2009,07,30,12,32,30.30
2009,07,30,12,33,30.30
2009,07,30,12,34,30.20
2009,07,30,12,35,30.20
2009,07,30,12,36,30.20
2009,07,30,12,37,30.20
2009,07,30,12,38,30.20
2009,07,30,12,39,30.10
2009,07,30,12,40,30.10
2009,07,30,12,41,30.10
2009,07,30,12,42,30.20
2009,07,30,12,43,30.20
2009,07,30,12,44,30.20
2009,07,30,12,45,30.20
2009,07,30,12,46,30.10
2009,07,30,12,47,30.00
2009,07,30,12,48,29.90
2009,07,30,12,49,30.00
2009,07,30,12,50,30.10
2009,07,30,12,51,30.20
2009,07,30,12,52,30.30
2009,07,30,12,53,30.50
2009,07,30,12,54,30.60
2009,07,30,12,55,30.60
2009,07,30,12,56,30.60
2009,07,30,12,57,30.70
2009,07,30,12,58,30.80
2009,07,30,12,59,30.80
2009,07,30,13,00,30.80
2009,07,30,13,01,30.80
2009,07,30,13,02,30.80
2009,07,30,13,03,30.90
2009,07,30,13,04,30.90
2009,07,30,13,05,31.00
2009,07,30,13,06,31.10
2009,07,30,13,07,31.10
2009,07,30,13,08,31.10
2009,07,30,13,09,31.20
2009,07,30,13,10,31.10
2009,07,30,13,11,31.10
2009,07,30,13,12,31.20
2009,07,30,13,13,31.20
2009,07,30,13,14,31.30
2009,07,30,13,15,31.40
2009,07,30,13,16,31.40
2009,07,30,13,17,31.50
2009,07,30,13,18,31.50
2009,07,30,13,19,31.40
2009,07,30,13,20,31.30
2009,07,30,13,21,31.30
2009,07,30,13,22,31.30
2009,07,30,13,23,31.30
2009,07,30,13,24,31.20
2009,07,30,13,25,31.30
2009,07,30,13,26,31.30
2009,07,30,13,27,31.20
2009,07,30,13,28,31.30
2009,07,30,13,29,31.30
2009,07,30,13,30,31.30
2009,07,30,13,31,31.20
2009,07,30,13,32,31.20
2009,07,30,13,33,31.20
2009,07,30,13,34,31.20
2009,07,30,13,35,31.30
2009,07,30,13,36,31.40
2009,07,30,13,37,31.40
2009,07,30,13,38,31.50
2009,07,30,13,39,31.60
2009,07,30,13,40,31.70
2009,07,30,13,41,31.80
2009,07,30,13,42,31.80
2009,07,30,13,43,31.80
2009,07,30,13,44,31.90
2009,07,30,13,45,31.90
2009,07,30,13,46,31.90
2009,07,30,13,47,31.90
2009,07,30,13,48,32.00
2009,07,30,13,49,32.10
2009,07,30,13,50,32.10
2009,07,30,13,51,32.20
2009,07,30,13,52,32.30
2009,07,30,13,53,32.40
2009,07,30,13,54,32.50
2009,07,30,13,55,32.60
2009,07,30,13,56,32.80
2009,07,30,13,57,33.00
2009,07,30,13,58,33.10
2009,07,30,13,59,33.20
2009,07,30,14,00,33.30
2009,07,30,14,01,33.40
2009,07,30,14,02,33.40
2009,07,30,14,03,33.40
2009,07,30,14,04,33.30
2009,07,30,14,05,33.20
2009,07,30,14,06,33.20
2009,07,30,14,07,33.20
2009,07,30,14,08,33.20
2009,07,30,14,09,33.20
2009,07,30,14,10,33.20
2009,07,30,14,11,33.20
2009,07,30,14,12,33.10
2009,07,30,14,13,33.00
2009,07,30,14,14,32.90
2009,07,30,14,15,32.90
2009,07,30,14,16,32.90
2009,07,30,14,17,33.00
2009,07,30,14,18,33.10
2009,07,30,14,19,33.20
2009,07,30,14,20,33.30
2009,07,30,14,21,33.40
2009,07,30,14,22,33.50
2009,07,30,14,23,33.50
2009,07,30,14,24,33.40
2009,07,30,14,25,33.20
2009,07,30,14,26,33.00
2009,07,30,14,27,33.00
2009,07,30,14,28,32.90
2009,07,30,14,29,32.80
2009,07,30,14,30,32.80
2009,07,30,14,31,32.90
2009,07,30,14,32,32.90
2009,07,30,14,33,32.90
2009,07,30,14,34,33.00
2009,07,30,14,35,33.10
2009,07,30,14,36,33.10
2009,07,30,14,37,33.10
2009,07,30,14,38,33.10
2009,07,30,14,39,33.20
2009,07,30,14,40,33.20
2009,07,30,14,41,33.20
2009,07,30,14,42,33.30
2009,07,30,14,43,33.40
2009,07,30,14,44,33.40
2009,07,30,14,45,33.20
2009,07,30,14,46,33.10
2009,07,30,14,47,33.10
2009,07,30,14,48,33.10
2009,07,30,14,49,33.20
2009,07,30,14,50,33.40
2009,07,30,14,51,33.40
2009,07,30,14,52,33.20
2009,07,30,14,53,33.20
2009,07,30,14,54,33.30
2009,07,30,14,55,33.40
2009,07,30,14,56,33.50
2009,07,30,14,57,33.50
2009,07,30,14,58,33.50
2009,07,30,14,59,33.60
2009,07,30,15,00,33.50
2009,07,30,15,01,33.50
2009,07,30,15,02,33.40
2009,07,30,15,03,33.40
2009,07,30,15,04,33.40
2009,07,30,15,05,33.40
2009,07,30,15,06,33.40
2009,07,30,15,07,33.60
2009,07,30,15,08,33.70
2009,07,30,15,09,33.70
2009,07,30,15,10,33.70
2009,07,30,15,11,33.80
2009,07,30,15,12,33.80
2009,07,30,15,13,33.70
2009,07,30,15,14,33.60
2009,07,30,15,15,33.60
2009,07,30,15,16,33.70
2009,07,30,15,17,33.70
2009,07,30,15,18,33.80
2009,07,30,15,19,33.80
2009,07,30,15,20,33.90
2009,07,30,15,21,34.00
2009,07,30,15,22,34.10
2009,07,30,15,23,34.10
2009,07,30,15,24,34.20
2009,07,30,15,25,34.20
2009,07,30,15,26,34.10
2009,07,30,15,27,34.10
2009,07,30,15,28,34.10
2009,07,30,15,29,34.10
2009,07,30,15,30,34.00
2009,07,30,15,31,34.00
2009,07,30,15,32,33.80
2009,07,30,15,33,33.80
2009,07,30,15,34,33.80
2009,07,30,15,35,33.80
2009,07,30,15,36,33.80
2009,07,30,15,37,34.00
2009,07,30,15,38,34.00
2009,07,30,15,39,34.10
2009,07,30,15,40,34.10
2009,07,30,15,41,34.10
2009,07,30,15,42,34.10
2009,07,30,15,43,34.10
2009,07,30,15,44,34.00
2009,07,30,15,45,34.00
2009,07,30,15,46,33.80
2009,07,30,15,47,33.80
2009,07,30,15,48,33.70
2009,07,30,15,49,33.70
2009,07,30,15,50,33.80
2009,07,30,15,51,34.00
2009,07,30,15,52,34.00
2009,07,30,15,53,34.10
2009,07,30,15,54,34.10
2009,07,30,15,55,34.10
2009,07,30,15,56,34.20
2009,07,30,15,57,34.20
2009,07,30,15,58,34.20
2009,07,30,15,59,34.30
2009,07,30,16,00,34.30
2009,07,30,16,01,34.20
2009,07,30,16,02,34.10
2009,07,30,16,03,34.10
2009,07,30,16,04,34.00
2009,07,30,16,05,34.00
2009,07,30,16,06,34.00
2009,07,30,16,07,34.00
2009,07,30,16,08,34.10
2009,07,30,16,09,34.10
2009,07,30,16,10,34.10
2009,07,30,16,11,34.10
2009,07,30,16,12,34.10
2009,07,30,16,13,34.10
2009,07,30,16,14,34.10
2009,07,30,16,15,34.00
2009,07,30,16,16,34.00
2009,07,30,16,17,34.00
2009,07,30,16,18,34.00
2009,07,30,16,19,33.80
2009,07,30,16,20,33.80
2009,07,30,16,21,33.80
2009,07,30,16,22,33.70
2009,07,30,16,23,33.80
2009,07,30,16,24,33.70
2009,07,30,16,25,33.70
2009,07,30,16,26,33.60
2009,07,30,16,27,33.60
2009,07,30,16,28,33.60
2009,07,30,16,29,33.70
2009,07,30,16,30,33.70
2009,07,30,16,31,33.60
2009,07,30,16,32,33.60
2009,07,30,16,33,33.60
2009,07,30,16,34,33.60
2009,07,30,16,35,33.50
2009,07,30,16,36,33.50
2009,07,30,16,37,33.50
2009,07,30,16,38,33.50
2009,07,30,16,39,33.50
2009,07,30,16,40,33.50
2009,07,30,16,41,33.50
2009,07,30,16,42,33.50
2009,07,30,16,43,33.50
2009,07,30,16,44,33.50
2009,07,30,16,45,33.40
2009,07,30,16,46,33.40
2009,07,30,16,47,33.40
2009,07,30,16,48,33.40
2009,07,30,16,49,33.40
2009,07,30,16,50,33.40
2009,07,30,16,51,33.50
2009,07,30,16,52,33.50
2009,07,30,16,53,33.50
2009,07,30,16,54,33.50
2009,07,30,16,55,33.40
2009,07,30,16,56,33.30
2009,07,30,16,57,33.20
2009,07,30,16,58,33.20
2009,07,30,16,59,33.20
2009,07,30,17,00,33.40
2009,07,30,17,01,33.40
2009,07,30,17,02,33.40
2009,07,30,17,03,33.30
2009,07,30,17,04,33.20
2009,07,30,17,05,33.30
2009,07,30,17,06,33.40
2009,07,30,17,07,33.40
2009,07,30,17,08,33.30
2009,07,30,17,09,33.20
2009,07,30,17,10,33.40
2009,07,30,17,11,33.40
2009,07,30,17,12,33.20
2009,07,30,17,13,33.10
2009,07,30,17,14,33.10
2009,07,30,17,15,33.10
2009,07,30,17,16,33.10
2009,07,30,17,17,33.10
2009,07,30,17,18,33.10
2009,07,30,17,19,33.10